AirNav   Phillips 66 Aviation Fuel
 
 625 users online  

25WN Little Plum Creek Airport
Pepin, Wisconsin, USA


FAA INFORMATION EFFECTIVE 14 SEPTEMBER 2017

Location

FAA Identifier: 25WN
Lat/Long: 44-31-43.3833N / 092-07-13.2278W
44-31.723055N / 092-07.220463W
44.5287176 / -92.1203411
(estimated)
Elevation: 830 ft. / 253 m (estimated)
From city: 5 miles N of PEPIN, WI
Time zone: UTC -5 (UTC -6 during Standard Time)
Zip code: 54759

Airport Operations

Airport use: Private use. Permission required prior to landing
Activation date: 03/2007
Control tower: no
ARTCC: MINNEAPOLIS CENTER
FSS: GREEN BAY FLIGHT SERVICE STATION
Attendance: UNATNDD
Wind indicator: yes
Segmented circle: no

Airport Communications

WX AWOS-3 at RGK (16 nm W): 119.25 (715-594-3763)

Nearby radio navigation aids

VOR radial/distance  VOR name  Freq  Var
ONAr326/32.5WINONA VOR/DME111.4001E
EAUr227/35.2EAU CLAIRE VORTAC112.9004E

Airport Services

Runway Information

Runway 9/27

Dimensions: 2640 x 100 ft. / 805 x 30 m
Surface: turf
RUNWAY 9  RUNWAY 27
Traffic pattern: leftleft

Airport Ownership and Management from official FAA records

Ownership: Privately-owned
Owner: LITTLE PLUM CREEK AIRPARK INC.
11253 ST CROIX TRAIL SOUTH
HASTING, MN 55033
Phone 651-437-8852
Manager: RICHARD G. FREITAG
W9257 PLUM VALLEY RD
PEPIN, WI 54759

Airport Operational Statistics

Aircraft based on the field: 1
Single engine airplanes: 1
    

Instrument Procedures

There are no published instrument procedures at 25WN.

Some nearby airports with instrument procedures:

KRGK - Red Wing Regional Airport (16 nm W)
KLUM - Menomonie Municipal Airport-Score Field (24 nm NE)
3T3 - Boyceville Municipal Airport (31 nm N)
KONA - Winona Municipal Airport-Max Conrad Field (32 nm SE)
KEAU - Chippewa Valley Regional Airport (34 nm NE)
 
Loc | Ops | Rwys | IFR | FBO | Links
Com | Nav | Svcs | Stats | Notes


 
Area around 25WN (Little Plum Creek Airport)
 
Road maps at: MapQuest Bing Google
 
Aerial photo
No photo
 
Sectional chart

 
Airport distance calculator
Flying to Little Plum Creek Airport? Find the distance to fly.

From to 25WN

Sunrise and sunset
Times for 19-Sep-2017
 Local
(UTC-5)
 Zulu
(UTC)
Morning civil twilight06:2411:24
Sunrise06:5311:53
Sunset19:1100:11
Evening civil twilight19:4100:41

Current date and time
Zulu (UTC)  20-Sep-2017 04:33:37
Local (UTC-5)  19-Sep-2017 23:33:37
 
METAR
KRGK 
15nm W 
200415Z AUTO 15015G22KT 10SM CLR 22/15 A2970 RMK AO2
KLUM 
24nm NE 
200415Z AUTO 12009G14KT 10SM CLR 20/16 A2975 RMK AO2 T02000160
TAF
KEAU 
34nm NE 
191743Z 1918/2018 13007KT P6SM SKC FM191900 14012KT P6SM SCT050 FM201000 14012KT P6SM -SHRA VCTS BKN030CB FM201200 15011KT P6SM OVC015
KRST 
41nm SW 
191935Z 1920/2018 16012G20KT P6SM FEW040 FM200200 14016KT P6SM SCT100 WS020/17040KT FM201000 16016KT P6SM BKN080 WS020/19040KT FM201400 20012KT P6SM SCT008 BKN012 FM201600 23010KT P6SM BKN045
KRNH 
41nm NW 
191743Z 1918/2018 15011G17KT P6SM SCT025 FM200400 14013G20KT P6SM SCT030 BKN070 WS018/16050KT FM201000 16013G20KT 6SM SHRA VCTS BKN030CB FM201200 15012G18KT P6SM OVC015
NOTAMs
Click for the latest NOTAMs
NOTAMs are issued by the DoD/FAA and will open in a separate window not controlled by AirNav.

 

 
 

Would you like to see your business listed on this page?

 If your business provides an interesting product or service to pilots, flight crews, aircraft, or users of the Little Plum Creek Airport, you should consider listing it here.  To start the listing process, click on the button below
 
Add a business
 

Other Pages about Little Plum Creek Airport

Update a link
 
Copyright © AirNav, LLC. All rights reserved. Privacy Policy  Contact